Year,Month,Day,Hour,Minute,Value (Times are PST for temperature in C)
2012,07,05,00,00,12.60
2012,07,05,00,01,12.50
2012,07,05,00,02,12.50
2012,07,05,00,03,12.50
2012,07,05,00,04,12.50
2012,07,05,00,05,12.40
2012,07,05,00,06,12.40
2012,07,05,00,07,12.40
2012,07,05,00,08,12.30
2012,07,05,00,09,12.30
2012,07,05,00,10,12.30
2012,07,05,00,11,12.30
2012,07,05,00,12,12.30
2012,07,05,00,13,12.20
2012,07,05,00,14,12.20
2012,07,05,00,15,12.20
2012,07,05,00,16,12.10
2012,07,05,00,17,12.10
2012,07,05,00,18,12.10
2012,07,05,00,19,12.00
2012,07,05,00,20,12.00
2012,07,05,00,21,12.00
2012,07,05,00,22,12.00
2012,07,05,00,23,11.90
2012,07,05,00,24,11.90
2012,07,05,00,25,11.90
2012,07,05,00,26,11.90
2012,07,05,00,27,11.80
2012,07,05,00,28,11.80
2012,07,05,00,29,11.80
2012,07,05,00,30,11.80
2012,07,05,00,31,11.80
2012,07,05,00,32,11.80
2012,07,05,00,33,11.80
2012,07,05,00,34,11.80
2012,07,05,00,35,11.70
2012,07,05,00,36,11.70
2012,07,05,00,37,11.70
2012,07,05,00,38,11.70
2012,07,05,00,39,11.70
2012,07,05,00,40,11.60
2012,07,05,00,41,11.60
2012,07,05,00,42,11.60
2012,07,05,00,43,11.60
2012,07,05,00,44,11.60
2012,07,05,00,45,11.60
2012,07,05,00,46,11.60
2012,07,05,00,47,11.60
2012,07,05,00,48,11.50
2012,07,05,00,49,11.40
2012,07,05,00,50,11.40
2012,07,05,00,51,11.40
2012,07,05,00,52,11.40
2012,07,05,00,53,11.40
2012,07,05,00,54,11.40
2012,07,05,00,55,11.40
2012,07,05,00,56,11.40
2012,07,05,00,57,11.40
2012,07,05,00,58,11.30
2012,07,05,00,59,11.30
2012,07,05,01,00,11.30
2012,07,05,01,01,11.30
2012,07,05,01,02,11.30
2012,07,05,01,03,11.20
2012,07,05,01,04,11.20
2012,07,05,01,05,11.20
2012,07,05,01,06,11.20
2012,07,05,01,07,11.10
2012,07,05,01,08,11.10
2012,07,05,01,09,11.10
2012,07,05,01,10,11.10
2012,07,05,01,11,11.10
2012,07,05,01,12,11.10
2012,07,05,01,13,11.10
2012,07,05,01,14,11.10
2012,07,05,01,15,11.10
2012,07,05,01,16,11.10
2012,07,05,01,17,11.00
2012,07,05,01,18,10.90
2012,07,05,01,19,10.90
2012,07,05,01,20,10.90
2012,07,05,01,21,10.90
2012,07,05,01,22,10.90
2012,07,05,01,23,10.90
2012,07,05,01,24,10.90
2012,07,05,01,25,10.90
2012,07,05,01,26,10.90
2012,07,05,01,27,10.90
2012,07,05,01,28,11.00
2012,07,05,01,29,11.10
2012,07,05,01,30,11.10
2012,07,05,01,31,11.10
2012,07,05,01,32,11.10
2012,07,05,01,33,11.10
2012,07,05,01,34,11.00
2012,07,05,01,35,10.90
2012,07,05,01,36,10.90
2012,07,05,01,37,10.90
2012,07,05,01,38,10.90
2012,07,05,01,39,10.90
2012,07,05,01,40,10.90
2012,07,05,01,41,10.90
2012,07,05,01,42,10.90
2012,07,05,01,43,10.90
2012,07,05,01,44,10.90
2012,07,05,01,45,10.90
2012,07,05,01,46,10.90
2012,07,05,01,47,10.90
2012,07,05,01,48,10.90
2012,07,05,01,49,10.90
2012,07,05,01,50,10.80
2012,07,05,01,51,10.80
2012,07,05,01,52,10.80
2012,07,05,01,53,10.80
2012,07,05,01,54,10.70
2012,07,05,01,55,10.70
2012,07,05,01,56,10.70
2012,07,05,01,57,10.70
2012,07,05,01,58,10.60
2012,07,05,01,59,10.60
2012,07,05,02,00,10.60
2012,07,05,02,01,10.60
2012,07,05,02,02,10.60
2012,07,05,02,03,10.60
2012,07,05,02,04,10.60
2012,07,05,02,05,10.60
2012,07,05,02,06,10.60
2012,07,05,02,07,10.60
2012,07,05,02,08,10.60
2012,07,05,02,09,10.60
2012,07,05,02,10,10.50
2012,07,05,02,11,10.40
2012,07,05,02,12,10.40
2012,07,05,02,13,10.40
2012,07,05,02,14,10.40
2012,07,05,02,15,10.40
2012,07,05,02,16,10.30
2012,07,05,02,17,10.30
2012,07,05,02,18,10.30
2012,07,05,02,19,10.20
2012,07,05,02,20,10.20
2012,07,05,02,21,10.20
2012,07,05,02,22,10.20
2012,07,05,02,23,10.20
2012,07,05,02,24,10.10
2012,07,05,02,25,10.10
2012,07,05,02,26,10.10
2012,07,05,02,27,10.10
2012,07,05,02,28,10.20
2012,07,05,02,29,10.20
2012,07,05,02,30,10.20
2012,07,05,02,31,10.20
2012,07,05,02,32,10.20
2012,07,05,02,33,10.20
2012,07,05,02,34,10.20
2012,07,05,02,35,10.20
2012,07,05,02,36,10.20
2012,07,05,02,37,10.10
2012,07,05,02,38,10.10
2012,07,05,02,39,10.10
2012,07,05,02,40,10.10
2012,07,05,02,41,10.10
2012,07,05,02,42,10.10
2012,07,05,02,43,10.10
2012,07,05,02,44,10.10
2012,07,05,02,45,10.10
2012,07,05,02,46,10.10
2012,07,05,02,47,10.10
2012,07,05,02,48,10.10
2012,07,05,02,49,10.10
2012,07,05,02,50,10.10
2012,07,05,02,51,10.10
2012,07,05,02,52,10.00
2012,07,05,02,53,9.90
2012,07,05,02,54,9.90
2012,07,05,02,55,9.90
2012,07,05,02,56,9.90
2012,07,05,02,57,9.90
2012,07,05,02,58,9.90
2012,07,05,02,59,9.90
2012,07,05,03,00,9.80
2012,07,05,03,01,9.80
2012,07,05,03,02,9.80
2012,07,05,03,03,9.80
2012,07,05,03,04,9.80
2012,07,05,03,05,9.80
2012,07,05,03,06,9.80
2012,07,05,03,07,9.80
2012,07,05,03,08,9.80
2012,07,05,03,09,9.80
2012,07,05,03,10,9.70
2012,07,05,03,11,9.70
2012,07,05,03,12,9.70
2012,07,05,03,13,9.70
2012,07,05,03,14,9.70
2012,07,05,03,15,9.70
2012,07,05,03,16,9.70
2012,07,05,03,17,9.70
2012,07,05,03,18,9.70
2012,07,05,03,19,9.60
2012,07,05,03,20,9.60
2012,07,05,03,21,9.60
2012,07,05,03,22,9.60
2012,07,05,03,23,9.60
2012,07,05,03,24,9.60
2012,07,05,03,25,9.60
2012,07,05,03,26,9.60
2012,07,05,03,27,9.60
2012,07,05,03,28,9.60
2012,07,05,03,29,9.60
2012,07,05,03,30,9.60
2012,07,05,03,31,9.50
2012,07,05,03,32,9.50
2012,07,05,03,33,9.50
2012,07,05,03,34,9.50
2012,07,05,03,35,9.50
2012,07,05,03,36,9.50
2012,07,05,03,37,9.50
2012,07,05,03,38,9.50
2012,07,05,03,39,9.50
2012,07,05,03,40,9.50
2012,07,05,03,41,9.50
2012,07,05,03,42,9.50
2012,07,05,03,43,9.50
2012,07,05,03,44,9.50
2012,07,05,03,45,9.50
2012,07,05,03,46,9.60
2012,07,05,03,47,9.60
2012,07,05,03,48,9.60
2012,07,05,03,49,9.60
2012,07,05,03,50,9.60
2012,07,05,03,51,9.60
2012,07,05,03,52,9.60
2012,07,05,03,53,9.60
2012,07,05,03,54,9.60
2012,07,05,03,55,9.60
2012,07,05,03,56,9.60
2012,07,05,03,57,9.60
2012,07,05,03,58,9.60
2012,07,05,03,59,9.60
2012,07,05,04,00,9.50
2012,07,05,04,01,9.50
2012,07,05,04,02,9.50
2012,07,05,04,03,9.50
2012,07,05,04,04,9.40
2012,07,05,04,05,9.40
2012,07,05,04,06,9.40
2012,07,05,04,07,9.40
2012,07,05,04,08,9.40
2012,07,05,04,09,9.30
2012,07,05,04,10,9.30
2012,07,05,04,11,9.30
2012,07,05,04,12,9.30
2012,07,05,04,13,9.20
2012,07,05,04,14,9.20
2012,07,05,04,15,9.20
2012,07,05,04,16,9.20
2012,07,05,04,17,9.20
2012,07,05,04,18,9.10
2012,07,05,04,19,9.10
2012,07,05,04,20,9.10
2012,07,05,04,21,9.10
2012,07,05,04,22,9.10
2012,07,05,04,23,9.10
2012,07,05,04,24,9.10
2012,07,05,04,25,9.10
2012,07,05,04,26,9.10
2012,07,05,04,27,9.10
2012,07,05,04,28,9.10
2012,07,05,04,29,9.10
2012,07,05,04,30,9.10
2012,07,05,04,31,9.10
2012,07,05,04,32,9.10
2012,07,05,04,33,9.00
2012,07,05,04,34,9.00
2012,07,05,04,35,9.00
2012,07,05,04,36,9.00
2012,07,05,04,37,8.90
2012,07,05,04,38,8.90
2012,07,05,04,39,8.90
2012,07,05,04,40,8.90
2012,07,05,04,41,8.80
2012,07,05,04,42,8.80
2012,07,05,04,43,8.80
2012,07,05,04,44,8.80
2012,07,05,04,45,8.70
2012,07,05,04,46,8.70
2012,07,05,04,47,8.70
2012,07,05,04,48,8.70
2012,07,05,04,49,8.70
2012,07,05,04,50,8.70
2012,07,05,04,51,8.70
2012,07,05,04,52,8.70
2012,07,05,04,53,8.70
2012,07,05,04,54,8.70
2012,07,05,04,55,8.70
2012,07,05,04,56,8.70
2012,07,05,04,57,8.70
2012,07,05,04,58,8.70
2012,07,05,04,59,8.70
2012,07,05,05,00,8.70
2012,07,05,05,01,8.70
2012,07,05,05,02,8.70
2012,07,05,05,03,8.70
2012,07,05,05,04,8.70
2012,07,05,05,05,8.70
2012,07,05,05,06,8.70
2012,07,05,05,07,8.70
2012,07,05,05,08,8.70
2012,07,05,05,09,8.70
2012,07,05,05,10,8.70
2012,07,05,05,11,8.70
2012,07,05,05,12,8.70
2012,07,05,05,13,8.70
2012,07,05,05,14,8.70
2012,07,05,05,15,8.70
2012,07,05,05,16,8.70
2012,07,05,05,17,8.70
2012,07,05,05,18,8.80
2012,07,05,05,19,8.80
2012,07,05,05,20,8.80
2012,07,05,05,21,8.80
2012,07,05,05,22,8.80
2012,07,05,05,23,8.80
2012,07,05,05,24,8.70
2012,07,05,05,25,8.70
2012,07,05,05,26,8.70
2012,07,05,05,27,8.70
2012,07,05,05,28,8.70
2012,07,05,05,29,8.70
2012,07,05,05,30,8.70
2012,07,05,05,31,8.70
2012,07,05,05,32,8.70
2012,07,05,05,33,8.60
2012,07,05,05,34,8.60
2012,07,05,05,35,8.60
2012,07,05,05,36,8.60
2012,07,05,05,37,8.60
2012,07,05,05,38,8.60
2012,07,05,05,39,8.60
2012,07,05,05,40,8.60
2012,07,05,05,41,8.60
2012,07,05,05,42,8.60
2012,07,05,05,43,8.60
2012,07,05,05,44,8.60
2012,07,05,05,45,8.60
2012,07,05,05,46,8.60
2012,07,05,05,47,8.60
2012,07,05,05,48,8.60
2012,07,05,05,49,8.60
2012,07,05,05,50,8.60
2012,07,05,05,51,8.60
2012,07,05,05,52,8.60
2012,07,05,05,53,8.60
2012,07,05,05,54,8.70
2012,07,05,05,55,8.70
2012,07,05,05,56,8.70
2012,07,05,05,57,8.70
2012,07,05,05,58,8.70
2012,07,05,05,59,8.70
2012,07,05,06,00,8.70
2012,07,05,06,01,8.80
2012,07,05,06,02,8.80
2012,07,05,06,03,8.90
2012,07,05,06,04,8.90
2012,07,05,06,05,8.90
2012,07,05,06,06,8.90
2012,07,05,06,07,9.00
2012,07,05,06,08,9.00
2012,07,05,06,09,9.00
2012,07,05,06,10,9.00
2012,07,05,06,11,9.10
2012,07,05,06,12,9.10
2012,07,05,06,13,9.10
2012,07,05,06,14,9.10
2012,07,05,06,15,9.20
2012,07,05,06,16,9.20
2012,07,05,06,17,9.20
2012,07,05,06,18,9.20
2012,07,05,06,19,9.20
2012,07,05,06,20,9.20
2012,07,05,06,21,9.20
2012,07,05,06,22,9.30
2012,07,05,06,23,9.30
2012,07,05,06,24,9.30
2012,07,05,06,25,9.40
2012,07,05,06,26,9.40
2012,07,05,06,27,9.50
2012,07,05,06,28,9.60
2012,07,05,06,29,9.70
2012,07,05,06,30,9.70
2012,07,05,06,31,9.80
2012,07,05,06,32,9.90
2012,07,05,06,33,9.90
2012,07,05,06,34,10.10
2012,07,05,06,35,10.20
2012,07,05,06,36,10.20
2012,07,05,06,37,10.30
2012,07,05,06,38,10.50
2012,07,05,06,39,10.60
2012,07,05,06,40,10.60
2012,07,05,06,41,10.70
2012,07,05,06,42,10.70
2012,07,05,06,43,10.70
2012,07,05,06,44,10.70
2012,07,05,06,45,10.70
2012,07,05,06,46,10.80
2012,07,05,06,47,10.80
2012,07,05,06,48,10.90
2012,07,05,06,49,10.90
2012,07,05,06,50,10.90
2012,07,05,06,51,11.10
2012,07,05,06,52,11.10
2012,07,05,06,53,11.30
2012,07,05,06,54,11.40
2012,07,05,06,55,11.50
2012,07,05,06,56,11.60
2012,07,05,06,57,11.60
2012,07,05,06,58,11.70
2012,07,05,06,59,11.80
2012,07,05,07,00,11.80
2012,07,05,07,01,12.00
2012,07,05,07,02,12.00
2012,07,05,07,03,12.10
2012,07,05,07,04,12.20
2012,07,05,07,05,12.30
2012,07,05,07,06,12.40
2012,07,05,07,07,12.50
2012,07,05,07,08,12.60
2012,07,05,07,09,12.60
2012,07,05,07,10,12.60
2012,07,05,07,11,12.60
2012,07,05,07,12,12.60
2012,07,05,07,13,12.60
2012,07,05,07,14,12.60
2012,07,05,07,15,12.70
2012,07,05,07,16,12.80
2012,07,05,07,17,12.80
2012,07,05,07,18,12.80
2012,07,05,07,19,12.90
2012,07,05,07,20,12.90
2012,07,05,07,21,12.90
2012,07,05,07,22,12.90
2012,07,05,07,23,13.00
2012,07,05,07,24,13.00
2012,07,05,07,25,13.10
2012,07,05,07,26,13.10
2012,07,05,07,27,13.10
2012,07,05,07,28,13.20
2012,07,05,07,29,13.20
2012,07,05,07,30,13.30
2012,07,05,07,31,13.30
2012,07,05,07,32,13.30
2012,07,05,07,33,13.30
2012,07,05,07,34,13.30
2012,07,05,07,35,13.20
2012,07,05,07,36,13.20
2012,07,05,07,37,13.30
2012,07,05,07,38,13.30
2012,07,05,07,39,13.40
2012,07,05,07,40,13.50
2012,07,05,07,41,13.50
2012,07,05,07,42,13.60
2012,07,05,07,43,13.60
2012,07,05,07,44,13.70
2012,07,05,07,45,13.70
2012,07,05,07,46,13.80
2012,07,05,07,47,13.90
2012,07,05,07,48,14.00
2012,07,05,07,49,14.00
2012,07,05,07,50,14.10
2012,07,05,07,51,14.20
2012,07,05,07,52,14.30
2012,07,05,07,53,14.40
2012,07,05,07,54,14.50
2012,07,05,07,55,14.60
2012,07,05,07,56,14.70
2012,07,05,07,57,14.80
2012,07,05,07,58,14.90
2012,07,05,07,59,15.00
2012,07,05,08,00,15.00
2012,07,05,08,01,15.00
2012,07,05,08,02,15.10
2012,07,05,08,03,15.10
2012,07,05,08,04,15.20
2012,07,05,08,05,15.30
2012,07,05,08,06,15.30
2012,07,05,08,07,15.40
2012,07,05,08,08,15.40
2012,07,05,08,09,15.40
2012,07,05,08,10,15.40
2012,07,05,08,11,15.40
2012,07,05,08,12,15.50
2012,07,05,08,13,15.50
2012,07,05,08,14,15.50
2012,07,05,08,15,15.50
2012,07,05,08,16,15.50
2012,07,05,08,17,15.50
2012,07,05,08,18,15.50
2012,07,05,08,19,15.60
2012,07,05,08,20,15.70
2012,07,05,08,21,15.70
2012,07,05,08,22,15.70
2012,07,05,08,23,15.80
2012,07,05,08,24,15.80
2012,07,05,08,25,15.90
2012,07,05,08,26,15.90
2012,07,05,08,27,16.00
2012,07,05,08,28,16.10
2012,07,05,08,29,16.10
2012,07,05,08,30,16.20
2012,07,05,08,31,16.20
2012,07,05,08,32,16.20
2012,07,05,08,33,16.10
2012,07,05,08,34,16.10
2012,07,05,08,35,16.20
2012,07,05,08,36,16.20
2012,07,05,08,37,16.30
2012,07,05,08,38,16.30
2012,07,05,08,39,16.30
2012,07,05,08,40,16.30
2012,07,05,08,41,16.40
2012,07,05,08,42,16.40
2012,07,05,08,43,16.50
2012,07,05,08,44,16.60
2012,07,05,08,45,16.70
2012,07,05,08,46,16.80
2012,07,05,08,47,16.90
2012,07,05,08,48,16.90
2012,07,05,08,49,16.90
2012,07,05,08,50,16.90
2012,07,05,08,51,16.90
2012,07,05,08,52,17.00
2012,07,05,08,53,17.00
2012,07,05,08,54,17.10
2012,07,05,08,55,17.20
2012,07,05,08,56,17.20
2012,07,05,08,57,17.20
2012,07,05,08,58,17.20
2012,07,05,08,59,17.30
2012,07,05,09,00,17.30
2012,07,05,09,01,17.20
2012,07,05,09,02,17.20
2012,07,05,09,03,17.20
2012,07,05,09,04,17.30
2012,07,05,09,05,17.30
2012,07,05,09,06,17.30
2012,07,05,09,07,17.30
2012,07,05,09,08,17.30
2012,07,05,09,09,17.30
2012,07,05,09,10,17.30
2012,07,05,09,11,17.30
2012,07,05,09,12,17.30
2012,07,05,09,13,17.30
2012,07,05,09,14,17.30
2012,07,05,09,15,17.30
2012,07,05,09,16,17.40
2012,07,05,09,17,17.50
2012,07,05,09,18,17.50
2012,07,05,09,19,17.50
2012,07,05,09,20,17.50
2012,07,05,09,21,17.60
2012,07,05,09,22,17.70
2012,07,05,09,23,17.70
2012,07,05,09,24,17.70
2012,07,05,09,25,17.70
2012,07,05,09,26,17.70
2012,07,05,09,27,17.70
2012,07,05,09,28,17.60
2012,07,05,09,29,17.50
2012,07,05,09,30,17.50
2012,07,05,09,31,17.40
2012,07,05,09,32,17.30
2012,07,05,09,33,17.30
2012,07,05,09,34,17.20
2012,07,05,09,35,17.20
2012,07,05,09,36,17.00
2012,07,05,09,37,16.90
2012,07,05,09,38,16.90
2012,07,05,09,39,16.80
2012,07,05,09,40,16.80
2012,07,05,09,41,16.80
2012,07,05,09,42,16.70
2012,07,05,09,43,16.70
2012,07,05,09,44,16.60
2012,07,05,09,45,16.50
2012,07,05,09,46,16.20
2012,07,05,09,47,16.10
2012,07,05,09,48,15.90
2012,07,05,09,49,15.80
2012,07,05,09,50,15.70
2012,07,05,09,51,15.60
2012,07,05,09,52,15.50
2012,07,05,09,53,15.50
2012,07,05,09,54,15.60
2012,07,05,09,55,15.70
2012,07,05,09,56,15.70
2012,07,05,09,57,15.70
2012,07,05,09,58,15.60
2012,07,05,09,59,15.60
2012,07,05,10,00,15.60
2012,07,05,10,01,15.60
2012,07,05,10,02,15.70
2012,07,05,10,03,15.80
2012,07,05,10,04,15.80
2012,07,05,10,05,15.80
2012,07,05,10,06,15.90
2012,07,05,10,07,16.00
2012,07,05,10,08,16.10
2012,07,05,10,09,16.10
2012,07,05,10,10,16.10
2012,07,05,10,11,16.20
2012,07,05,10,12,16.10
2012,07,05,10,13,16.20
2012,07,05,10,14,16.20
2012,07,05,10,15,16.30
2012,07,05,10,16,16.20
2012,07,05,10,17,16.10
2012,07,05,10,18,16.10
2012,07,05,10,19,16.10
2012,07,05,10,20,16.20
2012,07,05,10,21,16.20
2012,07,05,10,22,16.20
2012,07,05,10,23,16.20
2012,07,05,10,24,16.20
2012,07,05,10,25,16.30
2012,07,05,10,26,16.20
2012,07,05,10,27,16.20
2012,07,05,10,28,16.20
2012,07,05,10,29,16.10
2012,07,05,10,30,16.10
2012,07,05,10,31,16.00
2012,07,05,10,32,15.80
2012,07,05,10,33,15.80
2012,07,05,10,34,15.70
2012,07,05,10,35,15.70
2012,07,05,10,36,15.70
2012,07,05,10,37,15.70
2012,07,05,10,38,15.80
2012,07,05,10,39,15.80
2012,07,05,10,40,15.90
2012,07,05,10,41,16.00
2012,07,05,10,42,16.10
2012,07,05,10,43,16.10
2012,07,05,10,44,16.10
2012,07,05,10,45,16.10
2012,07,05,10,46,16.00
2012,07,05,10,47,15.90
2012,07,05,10,48,15.90
2012,07,05,10,49,15.90
2012,07,05,10,50,15.80
2012,07,05,10,51,15.80
2012,07,05,10,52,15.80
2012,07,05,10,53,15.90
2012,07,05,10,54,16.10
2012,07,05,10,55,16.20
2012,07,05,10,56,16.30
2012,07,05,10,57,16.30
2012,07,05,10,58,16.30
2012,07,05,10,59,16.30
2012,07,05,11,00,16.20
2012,07,05,11,01,16.20
2012,07,05,11,02,16.20
2012,07,05,11,03,16.10
2012,07,05,11,04,16.00
2012,07,05,11,05,15.90
2012,07,05,11,06,16.10
2012,07,05,11,07,16.10
2012,07,05,11,08,16.20
2012,07,05,11,09,16.30
2012,07,05,11,10,16.30
2012,07,05,11,11,16.40
2012,07,05,11,12,16.30
2012,07,05,11,13,16.20
2012,07,05,11,14,16.10
2012,07,05,11,15,16.10
2012,07,05,11,16,16.20
2012,07,05,11,17,16.30
2012,07,05,11,18,16.30
2012,07,05,11,19,16.40
2012,07,05,11,20,16.50
2012,07,05,11,21,16.60
2012,07,05,11,22,16.80
2012,07,05,11,23,16.80
2012,07,05,11,24,16.90
2012,07,05,11,25,16.80
2012,07,05,11,26,16.70
2012,07,05,11,27,16.70
2012,07,05,11,28,16.70
2012,07,05,11,29,16.70
2012,07,05,11,30,16.70
2012,07,05,11,31,16.80
2012,07,05,11,32,16.70
2012,07,05,11,33,16.70
2012,07,05,11,34,16.50
2012,07,05,11,35,16.30
2012,07,05,11,36,16.40
2012,07,05,11,37,16.40
2012,07,05,11,38,16.60
2012,07,05,11,39,16.70
2012,07,05,11,40,16.70
2012,07,05,11,41,16.80
2012,07,05,11,42,16.90
2012,07,05,11,43,17.00
2012,07,05,11,44,17.10
2012,07,05,11,45,17.20
2012,07,05,11,46,17.20
2012,07,05,11,47,17.30
2012,07,05,11,48,17.40
2012,07,05,11,49,17.40
2012,07,05,11,50,17.40
2012,07,05,11,51,17.30
2012,07,05,11,52,17.30
2012,07,05,11,53,17.30
2012,07,05,11,54,17.30
2012,07,05,11,55,17.30
2012,07,05,11,56,17.40
2012,07,05,11,57,17.60
2012,07,05,11,58,17.60
2012,07,05,11,59,17.60
2012,07,05,12,00,17.60
2012,07,05,12,01,17.60
2012,07,05,12,02,17.70
2012,07,05,12,03,17.70
2012,07,05,12,04,17.70
2012,07,05,12,05,17.80
2012,07,05,12,06,18.00
2012,07,05,12,07,18.20
2012,07,05,12,08,18.20
2012,07,05,12,09,18.00
2012,07,05,12,10,17.90
2012,07,05,12,11,17.90
2012,07,05,12,12,17.90
2012,07,05,12,13,17.90
2012,07,05,12,14,17.80
2012,07,05,12,15,17.70
2012,07,05,12,16,17.60
2012,07,05,12,17,17.60
2012,07,05,12,18,17.60
2012,07,05,12,19,17.60
2012,07,05,12,20,17.60
2012,07,05,12,21,17.50
2012,07,05,12,22,17.30
2012,07,05,12,23,17.30
2012,07,05,12,24,17.20
2012,07,05,12,25,17.30
2012,07,05,12,26,17.20
2012,07,05,12,27,17.20
2012,07,05,12,28,17.20
2012,07,05,12,29,17.20
2012,07,05,12,30,17.10
2012,07,05,12,31,17.10
2012,07,05,12,32,17.10
2012,07,05,12,33,17.20
2012,07,05,12,34,17.10
2012,07,05,12,35,17.00
2012,07,05,12,36,17.00
2012,07,05,12,37,17.00
2012,07,05,12,38,17.00
2012,07,05,12,39,16.90
2012,07,05,12,40,16.90
2012,07,05,12,41,16.90
2012,07,05,12,42,16.80
2012,07,05,12,43,16.80
2012,07,05,12,44,16.80
2012,07,05,12,45,16.90
2012,07,05,12,46,17.00
2012,07,05,12,47,17.00
2012,07,05,12,48,17.10
2012,07,05,12,49,17.20
2012,07,05,12,50,17.30
2012,07,05,12,51,17.30
2012,07,05,12,52,17.30
2012,07,05,12,53,17.30
2012,07,05,12,54,17.30
2012,07,05,12,55,17.20
2012,07,05,12,56,17.10
2012,07,05,12,57,17.10
2012,07,05,12,58,17.10
2012,07,05,12,59,17.20
2012,07,05,13,00,17.20
2012,07,05,13,01,17.00
2012,07,05,13,02,16.90
2012,07,05,13,03,16.80
2012,07,05,13,04,16.80
2012,07,05,13,05,16.70
2012,07,05,13,06,16.90
2012,07,05,13,07,16.90
2012,07,05,13,08,16.90
2012,07,05,13,09,17.00
2012,07,05,13,10,16.90
2012,07,05,13,11,16.80
2012,07,05,13,12,16.60
2012,07,05,13,13,16.40
2012,07,05,13,14,16.30
2012,07,05,13,15,16.30
2012,07,05,13,16,16.40
2012,07,05,13,17,16.40
2012,07,05,13,18,16.50
2012,07,05,13,19,16.60
2012,07,05,13,20,16.70
2012,07,05,13,21,16.70
2012,07,05,13,22,16.80
2012,07,05,13,23,16.90
2012,07,05,13,24,17.00
2012,07,05,13,25,17.00
2012,07,05,13,26,17.10
2012,07,05,13,27,17.20
2012,07,05,13,28,17.30
2012,07,05,13,29,17.40
2012,07,05,13,30,17.50
2012,07,05,13,31,17.60
2012,07,05,13,32,17.60
2012,07,05,13,33,17.70
2012,07,05,13,34,17.60
2012,07,05,13,35,17.50
2012,07,05,13,36,17.40
2012,07,05,13,37,17.30
2012,07,05,13,38,17.20
2012,07,05,13,39,17.20
2012,07,05,13,40,17.10
2012,07,05,13,41,17.10
2012,07,05,13,42,17.10
2012,07,05,13,43,17.10
2012,07,05,13,44,17.10
2012,07,05,13,45,17.20
2012,07,05,13,46,17.20
2012,07,05,13,47,17.30
2012,07,05,13,48,17.20
2012,07,05,13,49,17.20
2012,07,05,13,50,17.30
2012,07,05,13,51,17.20
2012,07,05,13,52,17.20
2012,07,05,13,53,17.20
2012,07,05,13,54,17.10
2012,07,05,13,55,17.10
2012,07,05,13,56,17.10
2012,07,05,13,57,17.10
2012,07,05,13,58,17.10
2012,07,05,13,59,17.00
2012,07,05,14,00,17.10
2012,07,05,14,01,17.20
2012,07,05,14,02,17.30
2012,07,05,14,03,17.30
2012,07,05,14,04,17.50
2012,07,05,14,05,17.60
2012,07,05,14,06,17.80
2012,07,05,14,07,17.90
2012,07,05,14,08,17.90
2012,07,05,14,09,17.90
2012,07,05,14,10,17.70
2012,07,05,14,11,17.40
2012,07,05,14,12,17.30
2012,07,05,14,13,17.30
2012,07,05,14,14,17.30
2012,07,05,14,15,17.20
2012,07,05,14,16,17.30
2012,07,05,14,17,17.30
2012,07,05,14,18,17.30
2012,07,05,14,19,17.30
2012,07,05,14,20,17.30
2012,07,05,14,21,17.30
2012,07,05,14,22,17.30
2012,07,05,14,23,17.50
2012,07,05,14,24,17.70
2012,07,05,14,25,17.80
2012,07,05,14,26,17.90
2012,07,05,14,27,17.90
2012,07,05,14,28,18.00
2012,07,05,14,29,18.10
2012,07,05,14,30,18.10
2012,07,05,14,31,18.10
2012,07,05,14,32,18.20
2012,07,05,14,33,18.20
2012,07,05,14,34,18.10
2012,07,05,14,35,17.90
2012,07,05,14,36,17.90
2012,07,05,14,37,17.90
2012,07,05,14,38,17.90
2012,07,05,14,39,17.90
2012,07,05,14,40,17.80
2012,07,05,14,41,17.80
2012,07,05,14,42,17.90
2012,07,05,14,43,17.90
2012,07,05,14,44,17.80
2012,07,05,14,45,17.70
2012,07,05,14,46,17.50
2012,07,05,14,47,17.50
2012,07,05,14,48,17.50
2012,07,05,14,49,17.50
2012,07,05,14,50,17.50
2012,07,05,14,51,17.50
2012,07,05,14,52,17.40
2012,07,05,14,53,17.30
2012,07,05,14,54,17.30
2012,07,05,14,55,17.30
2012,07,05,14,56,17.30
2012,07,05,14,57,17.30
2012,07,05,14,58,17.30
2012,07,05,14,59,17.30
2012,07,05,15,00,17.30
2012,07,05,15,01,17.40
2012,07,05,15,02,17.40
2012,07,05,15,03,17.40
2012,07,05,15,04,17.50
2012,07,05,15,05,17.60
2012,07,05,15,06,17.60
2012,07,05,15,07,17.60
2012,07,05,15,08,17.60
2012,07,05,15,09,17.60
2012,07,05,15,10,17.60
2012,07,05,15,11,17.70
2012,07,05,15,12,17.90
2012,07,05,15,13,17.90
2012,07,05,15,14,17.90
2012,07,05,15,15,17.90
2012,07,05,15,16,18.00
2012,07,05,15,17,18.10
2012,07,05,15,18,18.20
2012,07,05,15,19,18.30
2012,07,05,15,20,18.30
2012,07,05,15,21,18.20
2012,07,05,15,22,18.10
2012,07,05,15,23,18.00
2012,07,05,15,24,17.80
2012,07,05,15,25,17.80
2012,07,05,15,26,17.70
2012,07,05,15,27,17.70
2012,07,05,15,28,17.80
2012,07,05,15,29,17.80
2012,07,05,15,30,17.80
2012,07,05,15,31,17.80
2012,07,05,15,32,17.90
2012,07,05,15,33,18.00
2012,07,05,15,34,18.10
2012,07,05,15,35,18.10
2012,07,05,15,36,18.20
2012,07,05,15,37,18.20
2012,07,05,15,38,18.20
2012,07,05,15,39,18.20
2012,07,05,15,40,18.00
2012,07,05,15,41,17.90
2012,07,05,15,42,17.90
2012,07,05,15,43,17.90
2012,07,05,15,44,17.90
2012,07,05,15,45,17.90
2012,07,05,15,46,17.90
2012,07,05,15,47,17.90
2012,07,05,15,48,17.90
2012,07,05,15,49,18.00
2012,07,05,15,50,18.10
2012,07,05,15,51,18.00
2012,07,05,15,52,17.90
2012,07,05,15,53,17.90
2012,07,05,15,54,17.90
2012,07,05,15,55,17.90
2012,07,05,15,56,18.00
2012,07,05,15,57,18.10
2012,07,05,15,58,18.20
2012,07,05,15,59,18.30
2012,07,05,16,00,18.40
2012,07,05,16,01,18.50
2012,07,05,16,02,18.60
2012,07,05,16,03,18.80
2012,07,05,16,04,18.90
2012,07,05,16,05,19.00
2012,07,05,16,06,19.10
2012,07,05,16,07,19.20
2012,07,05,16,08,19.20
2012,07,05,16,09,19.30
2012,07,05,16,10,19.30
2012,07,05,16,11,19.40
2012,07,05,16,12,19.40
2012,07,05,16,13,19.50
2012,07,05,16,14,19.40
2012,07,05,16,15,19.40
2012,07,05,16,16,19.40
2012,07,05,16,17,19.40
2012,07,05,16,18,19.40
2012,07,05,16,19,19.20
2012,07,05,16,20,19.10
2012,07,05,16,21,19.10
2012,07,05,16,22,19.10
2012,07,05,16,23,19.10
2012,07,05,16,24,19.10
2012,07,05,16,25,19.10
2012,07,05,16,26,19.10
2012,07,05,16,27,19.10
2012,07,05,16,28,19.20
2012,07,05,16,29,19.30
2012,07,05,16,30,19.40
2012,07,05,16,31,19.40
2012,07,05,16,32,19.40
2012,07,05,16,33,19.50
2012,07,05,16,34,19.50
2012,07,05,16,35,19.50
2012,07,05,16,36,19.60
2012,07,05,16,37,19.70
2012,07,05,16,38,19.60
2012,07,05,16,39,19.50
2012,07,05,16,40,19.40
2012,07,05,16,41,19.30
2012,07,05,16,42,19.30
2012,07,05,16,43,19.20
2012,07,05,16,44,19.20
2012,07,05,16,45,19.20
2012,07,05,16,46,19.30
2012,07,05,16,47,19.30
2012,07,05,16,48,19.40
2012,07,05,16,49,19.50
2012,07,05,16,50,19.60
2012,07,05,16,51,19.50
2012,07,05,16,52,19.50
2012,07,05,16,53,19.50
2012,07,05,16,54,19.40
2012,07,05,16,55,19.40
2012,07,05,16,56,19.40
2012,07,05,16,57,19.50
2012,07,05,16,58,19.50
2012,07,05,16,59,19.50
2012,07,05,17,00,19.50
2012,07,05,17,01,19.50
2012,07,05,17,02,19.50
2012,07,05,17,03,19.50
2012,07,05,17,04,19.50
2012,07,05,17,05,19.60
2012,07,05,17,06,19.60
2012,07,05,17,07,19.70
2012,07,05,17,08,19.80
2012,07,05,17,09,19.90
2012,07,05,17,10,20.00
2012,07,05,17,11,20.10
2012,07,05,17,12,20.20
2012,07,05,17,13,20.20
2012,07,05,17,14,20.20
2012,07,05,17,15,20.20
2012,07,05,17,16,20.30
2012,07,05,17,17,20.30
2012,07,05,17,18,20.20
2012,07,05,17,19,20.20
2012,07,05,17,20,20.10
2012,07,05,17,21,20.00
2012,07,05,17,22,19.90
2012,07,05,17,23,19.90
2012,07,05,17,24,19.90
2012,07,05,17,25,19.90
2012,07,05,17,26,19.90
2012,07,05,17,27,19.90
2012,07,05,17,28,19.90
2012,07,05,17,29,19.90